Welcome to the New NWS' Forecast!
Most changes are behind the scenes, but click here for differences you might notice.
Latest weather observations around

Little Rock, Adams Field (KLIT)

Using English Units (Switch to International System of Units)
Date/ Time (CDT) Wind (mph) Vis. (mi) Weather Sky Cond. Temp (°F) Rel. Humidity Wind Chill (°F) Heat Index (°F) Pressure Precip. (in)
Air Dwpt 6 hour Altimeter (inHg) Sea level (inHg) 1 hr 3 hr 6 hr
Max Min
Apr 28 05:53 NE 9 10 Mostly Cloudy SCT035 BKN110 BKN250 56 56     100%     29.76 29.77      
Apr 28 04:53 ENE 7 10 Cloudy BKN110 OVC250 55 55     100%     29.76 29.76      
Apr 28 03:53 ENE 5 10 Cloudy BKN110 OVC250 55 55     100%     29.76 29.76      
Apr 28 02:53 ENE 6 10 Cloudy OVC110 56 56     100%     29.76 29.76      
Apr 28 01:53 ENE 6 10 Partly Cloudy SCT100 55 54     96%     29.77 29.77      
Apr 28 00:53 ESE 5 10 Partly Cloudy SCT250 56 55     97%     29.78 29.78      
Apr 27 23:53 SE 5 10 Partly Cloudy FEW120 SCT250 56 54     93%     29.79 29.79      
Apr 27 22:53 SE 7 10 Partly Cloudy FEW120 SCT250 59 55     87%     29.79 29.79      
Apr 27 21:53 ESE 5 10 Partly Cloudy FEW120 SCT250 58 54     87%     29.77 29.77      
Apr 27 20:53 SE 6 10 Mostly Clear FEW120 FEW250 60 53     78%     29.75 29.75      
Apr 27 19:53 SE 6 10 Mostly Clear FEW120 FEW250 62 52     70%     29.75 29.75      
Apr 27 18:53   10 Partly Cloudy FEW035 FEW120 SCT250 66 51     59%     29.74 29.75      
Apr 27 17:53 SE 10 10 Partly Cloudy FEW120 SCT250 67 53     61%     29.75 29.76      
Apr 27 16:53 SE 7 10 Partly Cloudy FEW035 FEW120 SCT250 68 53     59%     29.79 29.79      
Apr 27 15:53 7 10 Partly Cloudy FEW035 SCT250 67 52     59%     29.79 29.79      
Apr 27 14:53 SSE 8 10 Partly Cloudy FEW033 SCT250 66 51     59%     29.83 29.83      
Apr 27 13:53 SE 9 10 Partly Cloudy FEW033 SCT250 64 49     58%     29.85 29.85      
Apr 27 12:53 E 7 10 Partly Cloudy FEW030 SCT250 62 49     62%     29.84 29.84      
Apr 27 11:53 ENE 5 10 Partly Cloudy FEW031 SCT250 60 46     60%     29.86 29.86      
Apr 27 10:53 Calm 10 Partly Cloudy FEW026 SCT250 58 46     65%     29.87 29.87      
Apr 27 09:53 Calm 10 Partly Cloudy FEW022 SCT250 54 44     69%     29.85 29.86      
Apr 27 08:53 NW 6 10 Partly Cloudy FEW015 SCT250 53 46     77%     29.83 29.84      
Apr 27 07:53 NNW 5 10 Partly Cloudy SCT250 51 47     86%     29.82 29.82      
Apr 27 06:53 WSW 5 10 Mostly Cloudy BKN250 45 45     100% 43   29.79 29.8      
Apr 27 05:53 WSW 7 10 Clear CLR 45 45     100% 41   29.78 29.79      
Apr 27 04:53 WSW 7 10 Clear CLR 46 45     96% 42   29.75 29.76      
Apr 27 03:53 W 6 10 Mostly Clear FEW023 47 46     97% 44   29.74 29.74      
Apr 27 02:53 W 8 10 Clear CLR 49 46     90% 45   29.72 29.72      
Apr 27 02:33 W 9 10 Mostly Clear FEW021 49 46     90% 45   29.72        
Apr 27 01:53 WNW 8 10 Cloudy OVC022 51 47     86%     29.71 29.72      
Apr 27 00:53   10 Cloudy OVC019 51 48     89%     29.72 29.72     0
Apr 26 23:53 WNW 13 10 Cloudy SCT013 OVC018 52 49     89%     29.68 29.69      
Apr 26 23:05   10 Cloudy OVC015 53 50     89%     29.67        
Apr 26 22:53   10 Cloudy OVC012 53 51     93%     29.66 29.66      
Apr 26 21:53 W 11 10 Cloudy BKN014 OVC022 54 52     93%     29.63 29.63   0  
Apr 26 21:31   10 Cloudy BKN014 OVC022 55 53     93%     29.61        
Apr 26 20:53   10 Cloudy FEW005 SCT011 OVC018 56 55     97%     29.57 29.57 0    
Apr 26 20:19   7 Cloudy SCT005 OVC011 57 56     96%     29.54   0    
Apr 26 20:15   5 Light Drizzle and Fog/Mist SCT005 OVC011 57 57     100%     29.52   0    
Apr 26 19:53 W 11 2.5 Light Drizzle and Fog/Mist OVC005 58 58     100%     29.54 29.54 0    
Apr 26 19:46   3 Light Rain and Fog/Mist OVC006 59 59     100%     29.53   0    
Apr 26 19:33 WSW 7 2 Light Rain and Fog/Mist OVC006 60 60     100%     29.5   0    
Apr 26 19:22 SSW 9 2 Thunderstorms and Rain and Fog/Mist BKN006 BKN015 OVC029 61 61     100%     29.53   0    
Apr 26 18:53 SSW 8 3 Thunderstorms and Rain and Fog/Mist BKN006 BKN015 OVC029 60 60     100%     29.49 29.49 0   2
Apr 26 18:39 S 6 4 Thunderstorms and Rain and Fog/Mist SCT005 BKN015 OVC029 60 60     100%     29.47   0    
Apr 26 17:53 S 5 3 Thunderstorms and Rain and Fog/Mist BKN005 BKN015 OVC029 60 60     100%     29.46 29.47 0    
Apr 26 16:53 SSE 8 3 Thunderstorms and Rain and Fog/Mist BKN005 OVC029 61 61     100%     29.47 29.47 0    
Apr 26 16:48 SSE 6 3 Thunderstorms and Rain and Fog/Mist BKN005 OVC029 61 61     100%     29.46   0    
Apr 26 16:40 S 3 5 Thunderstorms and Rain and Fog/Mist BKN005 OVC029 61 61     100%     29.46   0    
Apr 26 16:29 E 6 5 Thunderstorms and Light Rain and Fog/Mist SCT006 OVC029 61 61     100%     29.45   0    
Apr 26 16:18 Calm 3 Thunderstorms and Light Rain and Fog/Mist BKN006 OVC029 61 61     100%     29.46   0    
Apr 26 16:11 NNW 3 2.5 Thunderstorms and Rain and Fog/Mist BKN006 OVC029 61 61     100%     29.46   0    
Apr 26 16:05 NNE 3 2 Thunderstorms and Rain and Fog/Mist SCT006 BKN029 OVC035 61 61     100%     29.47   0    
Apr 26 15:53 5 1 Thunderstorms and Heavy Rain and Fog/Mist FEW006 BKN029 OVC035 62 62     100%     29.51 29.51 1 1  
Apr 26 15:31 Calm 2.5 Thunderstorms and Rain FEW006 BKN029 OVC035 62 62     100%     29.47   0    
Apr 26 15:30 Calm 2.5 Thunderstorms and Light Rain FEW006 BKN029 OVC035 62 62     100%     29.47   0    
Apr 26 15:26 NE 7 2.5 Rain and Fog/Mist FEW006 BKN029 OVC035 62 62     100%     29.46   0    
Apr 26 15:15 ENE 8 3 Light Rain and Fog/Mist FEW006 BKN029 OVC035 62 62     100%     29.46   0    
Apr 26 15:08 NNE 6 2.5 Light Rain and Fog/Mist FEW006 BKN029 OVC035 62 62     100%     29.47   0    
Apr 26 14:53 N 5 1 Heavy Rain and Fog/Mist SCT021 BKN027 OVC035 62 62     100%     29.51 29.51 0    
Apr 26 14:43 NNW 11 1 Rain and Fog/Mist FEW012 BKN021 OVC031 62 62     100%     29.51   0    
Apr 26 14:31 NNW 10 0.75 Heavy Rain and Fog/Mist FEW010 OVC019 62 62     100%     29.51   0    
Apr 26 14:24   1.75 Rain and Fog/Mist FEW010 OVC016 63 63     100%     29.5   0    
Apr 26 13:53 NW 10 10 Cloudy FEW010 OVC016 67 62     84%     29.51 29.51      
Apr 26 12:53 SSE 16 10 Cloudy BKN016 OVC030 72 67     84%   73 29.53 29.53      
Apr 26 12:24 SSE 15 10 Mostly Cloudy BKN018 BKN070 72 67     84%   73 29.55        
Apr 26 12:02 SE 16 10 Cloudy SCT021 BKN090 OVC120 73 68     84%   74 29.55        
Apr 26 11:53 SE 16 10 Cloudy SCT019 BKN025 OVC085 73 67     81%   74 29.55 29.55      
Apr 26 10:53 SE 10 10 Cloudy BKN015 OVC025 70 66     87%     29.57 29.57      
Apr 26 10:02 SE 11 10 Cloudy SCT015 OVC025 69 66     90%     29.58        
Apr 26 09:53 SSE 15 10 Cloudy FEW017 BKN030 OVC035 69 66     90%     29.57 29.57      
Apr 26 09:41 SSE 17 10 Cloudy FEW018 BKN030 OVC035 69 66     90%     29.57        
Apr 26 08:59   10 Cloudy SCT012 BKN030 OVC080 69 65     87%     29.57        
Apr 26 08:53 SSE 15 10 Cloudy SCT013 BKN020 OVC075 68 65     90%     29.57 29.57      
Apr 26 08:45 SSE 15 10 Cloudy SCT013 BKN020 OVC048 68 65     90%     29.57        
Apr 26 07:53 SE 14 10 Cloudy FEW045 OVC060 68 65     90%     29.57 29.57      
Apr 26 06:53 SE 13 10 Cloudy FEW021 BKN032 OVC060 68 64     87%     29.57 29.57      
Apr 26 05:53 E 10 10 Cloudy SCT025 OVC033 70 65     84%     29.57 29.57      
Apr 26 04:53 SSE 5 10 Cloudy FEW027 OVC046 70 65     84%     29.57 29.57      
Apr 26 03:53 SSE 7 10 Cloudy OVC046 71 64     79%   72 29.55 29.55      
Apr 26 02:53 S 10 10 Cloudy OVC043 71 64     79%   72 29.55 29.54      
Apr 26 01:53 S 11 10 Cloudy OVC046 72 64     76%   72 29.56 29.55      
Apr 26 00:53 S 13 10 Cloudy OVC048 72 63     73%   72 29.55 29.55      
Apr 25 23:53 S 11 10 Cloudy OVC043 72 63     73%   72 29.57 29.57      
Apr 25 22:53 S 14 10 Cloudy OVC043 72 62     71%   72 29.56 29.56      
Apr 25 21:53 S 11 10 Mostly Cloudy BKN045 BKN250 72 61     68%   72 29.57 29.57      
Apr 25 20:53 SSE 5 10 Mostly Cloudy SCT040 SCT120 BKN250 71 61     70%   71 29.55 29.55      
Apr 25 19:53 S 10 10 Mostly Cloudy FEW040 FEW120 BKN250 75 60     60%   75 29.54 29.54      
Apr 25 18:53 S 10 10 Partly Cloudy FEW040 SCT250 78 60     54%   78 29.53 29.53      
Apr 25 17:53 S 13 10 Clear   80 61     52%   81 29.54 29.54      
Apr 25 16:53   10 Mostly Clear FEW250 81 59     47%   81 29.55 29.55      
Apr 25 15:53 S 15 10 Partly Cloudy FEW040 SCT250 81 59     47%   81 29.56 29.56      
Apr 25 14:53 SSE 17 10 Partly Cloudy SCT250 79 58     49%   79 29.58 29.58      
Apr 25 13:53   10 Mostly Clear FEW250 79 56     45%   79 29.61 29.61      
Apr 25 12:53 S 15 10 Mostly Clear FEW250 77 54     45%   77 29.64 29.65      
Apr 25 11:53   10 Mostly Clear FEW250 74 55     52%   73 29.67 29.67      
Apr 25 09:53 SSW 13 10 Mostly Clear FEW150 FEW250 69 54     59%     29.7 29.7      
Apr 25 08:53 S 8 10 Mostly Clear FEW150 FEW250 64 53     67%     29.71 29.71      
Apr 25 07:53 S 8 10 Mostly Clear FEW150 FEW250 57 51     81%     29.71 29.71      
Apr 25 06:53 Calm 10 Partly Cloudy SCT250 52 47     83%     29.72 29.72      
Apr 25 05:53 SSE 3 10 Mostly Clear FEW250 51 47     86%     29.7 29.7      
Apr 25 04:53 S 6 10 Clear CLR 51 47     86%     29.7 29.7      
Apr 25 03:53 Calm 10 Clear CLR 53 48     83%     29.71 29.71      
Apr 25 02:53 Calm 10 Clear CLR 53 48     83%     29.72 29.72      
Apr 25 01:53 Calm 10 Clear CLR 52 47     83%     29.74 29.74      
Apr 25 00:53 SSE 6 10 Clear CLR 55 48     77%     29.75 29.75      
Apr 24 23:53 SSE 7 10 Mostly Clear FEW250 55 50     83%     29.74 29.74      
Apr 24 22:53 SSE 6 10 Mostly Clear FEW250 57 50     77%     29.75 29.75      
Apr 24 21:53 SSE 7 10 Mostly Clear FEW250 59 49     69%     29.74 29.74      
Apr 24 20:53 SSE 5 10 Mostly Clear FEW250 63 48     58%     29.74 29.74      
Apr 24 19:53 SE 8 10 Partly Cloudy SCT250 66 47     50%     29.73 29.74      
Apr 24 18:53 SE 7 10 Partly Cloudy SCT250 70 43     38%     29.75 29.75      
Apr 24 17:53 SE 6 10 Partly Cloudy SCT250 74 42     32%   73 29.76 29.77      
Apr 24 16:53 SE 8 10 Mostly Clear FEW015 FEW250 75 37     25%   73 29.77 29.77      
Apr 24 15:53 ESE 8 10 Mostly Clear FEW250 76 41     29%   75 29.8 29.8      
Apr 24 14:53 SE 5 10 Mostly Clear FEW250 75 39     27%   74 29.84 29.84      
Apr 24 13:53 Calm 10 Mostly Clear FEW250 74 36     25%   72 29.88 29.88      
Apr 24 12:53 3 10 Mostly Clear FEW015 FEW250 73 37     27%   71 29.91 29.91      
Apr 24 11:53 NNW 8 10 Mostly Clear FEW010 FEW250 72        %     29.94 29.95      
Apr 24 10:53 WNW 6 10 Clear CLR 68 44     42%     29.97 29.97      
Apr 24 09:53 NNW 8 10 Clear CLR 64 44     48%     29.97 29.98      
Apr 24 08:53 NW 8 10 Clear CLR 59 46     62%     29.98 29.98      
Apr 24 07:53 WNW 10 10 Clear CLR 55 46     72%     29.98 29.98      
Apr 24 06:53 W 3 10 Mostly Clear FEW250 48 45     89% 47   29.96 29.96      
Apr 24 05:53 Calm 7 Mostly Clear FEW250 46 45     96%     29.95 29.95      
Apr 24 04:53 WNW 5 10 Clear CLR 46 45     96% 44   29.93 29.93      
Apr 24 03:53 WSW 6 10 Mostly Clear FEW250 46 45     96% 43   29.92 29.92      
Apr 24 02:53 WSW 5 10 Mostly Clear FEW250 48 46     93% 46   29.91 29.91      
Apr 24 01:53 Calm 10 Clear CLR 49 46     90%     29.92 29.93      
Apr 24 00:53 Calm 10 Clear CLR 53 45     74%     29.94 29.94      
Apr 23 23:53 Calm 10 Clear CLR 55 45     69%     29.96 29.96      
Apr 23 22:53 NNW 6 10 Mostly Clear FEW200 57 41     55%     29.97 29.98      
Apr 23 21:53 NW 5 10 Mostly Clear FEW200 59 41     51%     29.97 29.98      
Apr 23 20:53 NNW 7 10 Mostly Clear FEW200 62 39     43%     29.97 29.97      
Apr 23 19:53 N 8 10 Clear CLR 63 39     41%     29.96 29.96      
Apr 23 18:53 N 10 10 Clear CLR 69 37     31%     29.95 29.96      
Apr 23 17:53 N 8 10 Clear CLR 71 37     29%   69 29.95 29.95      
Apr 23 16:53 N 16 10 Clear CLR 72 37     28%   70 29.95 29.96      
Apr 23 15:53 NNW 13 10 Clear CLR 71 40     32%   69 29.96 29.96      
Apr 23 14:53 N 13 10 Clear CLR 69 40     35%     29.98 29.98      
Apr 23 13:53   10 Clear CLR 67 39     36%     30 30      
Apr 23 12:53   10 Mostly Clear FEW055 66 40     38%     30.01 30.02      
Apr 23 11:53 N 14 10 Mostly Clear FEW046 63 42     46%     30.03 30.03      
Apr 23 10:53   10 Mostly Clear FEW035 FEW250 61 44     54%     30.04 30.04      
Apr 23 09:53 NNW 11 10 Mostly Clear FEW031 59 45     60%     30.04 30.05      
Apr 23 08:53 NNW 16 10 Mostly Clear FEW250 55 45     69%     30.04 30.05      
Apr 23 07:53 NNW 13 10 Mostly Clear FEW040 FEW250 53 46     77%     30.04 30.04      
Apr 23 06:53 NW 10 10 Mostly Cloudy BKN040 50 46     86% 46   30.03 30.03      
Apr 23 05:53 NNW 10 10 Partly Cloudy SCT040 50 46     86% 46   30.01 30.01      
Apr 23 04:53 NNW 11 10 Cloudy SCT022 OVC035 50 47     89% 46   30 30.01      
Apr 23 04:33 NNW 10 10 Cloudy SCT022 OVC035 50 47     89% 46   30        
Apr 23 03:53 N 9 10 Cloudy OVC017 51 47     86%     30 30.01      
Apr 23 02:53 NNW 10 10 Cloudy OVC019 50 47     89% 46   30 30.01      
Apr 23 01:53 NNW 8 10 Cloudy OVC018 50 48     93% 47   30.01 30.02      
Apr 23 00:53 N 9 10 Cloudy BKN022 OVC038 51 47     86%     30.03 30.03     0
Apr 22 23:53 N 13 10 Cloudy BKN022 OVC038 51 48     89%     30.03 30.04      
Apr 22 23:38 N 11 10 Cloudy FEW016 BKN022 OVC038 51 48     89%     30.03        
Apr 22 22:53 N 14 10 Cloudy FEW012 SCT023 OVC030 51 48     89%     30.03 30.04      
Apr 22 22:46   10 Cloudy FEW012 SCT023 OVC030 51 48     89%     30.03        
Apr 22 21:53 NNW 14 10 Cloudy BKN023 OVC032 52 50     93%     30.03 30.04   0  
Apr 22 21:49 NNW 11 10 Cloudy SCT021 OVC032 52 50     94%     30.03        
Apr 22 21:28 NNW 10 10 Cloudy BKN023 OVC034 52 49     89%     30.03        
Apr 22 21:23 NNW 10 10 Cloudy SCT023 OVC030 52 50     93%     30.02        
Apr 22 20:53 NNW 9 10 Cloudy OVC024 52 50     93%     30.02 30.02      
Apr 22 19:53 N 13 10 Cloudy FEW012 OVC024 52 50     93%     30 30.01 0    
Apr 22 18:53   10 Cloudy OVC022 54 51     90%     29.98 29.99     0
Apr 22 17:53 NNW 11 10 Cloudy FEW014 OVC020 56 53     90%     29.96 29.97 0    
Apr 22 16:53 N 10 5 Light Drizzle and Fog/Mist FEW009 OVC016 55 54     96%     29.94 29.95 0    
Apr 22 16:46 N 10 4 Light Drizzle and Fog/Mist FEW009 OVC016 54 54     100%     29.95   0    
Apr 22 16:37 NNE 8 3 Light Drizzle and Fog/Mist FEW008 OVC014 54 54     100%     29.94   0    
Apr 22 16:20 NNE 10 5 Light Drizzle and Fog/Mist BKN014 OVC019 55 54     96%     29.94   0    
Apr 22 15:53 NE 10 10 Cloudy OVC015 56 53     90%     29.94 29.95      
Apr 22 14:53 NNE 6 10 Cloudy OVC015 58 53     84%     29.94 29.95      
Apr 22 14:04 N 9 10 Cloudy OVC015 58 53     84%     29.95        
Apr 22 13:53 N 7 10 Cloudy OVC013 58 53     84%     29.95 29.95      
Apr 22 12:53 N 10 10 Cloudy OVC013 57 54     89%     29.94 29.94     0
Apr 22 11:53 NNE 11 10 Cloudy OVC011 57 55     93%     29.94 29.94      
Apr 22 11:20 N 13 10 Cloudy OVC011 57 54     89%     29.94        
Apr 22 10:53 N 11 10 Cloudy BKN009 OVC015 56 55     97%     29.93 29.93 0    
Apr 22 09:53 N 11 10 Light Rain BKN009 OVC015 55 55     100%     29.92 29.92 0 0  
Apr 22 08:53 NNW 10 3 Light Rain and Fog/Mist BKN007 OVC012 54 54     100%     29.9 29.9 0    
Apr 22 07:53 NNW 10 10 Cloudy OVC005 54 54     100%     29.88 29.88 0    
Apr 22 06:53 NNE 5 10 Light Rain OVC005 54 54     100%     29.86 29.86 0   0
Apr 22 05:53 NE 6 10 Cloudy OVC006 53 53     100%     29.84 29.84      
Apr 22 04:53 E 7 10 Cloudy OVC008 53 53     100%     29.84 29.84      
Apr 22 03:53 NE 8 10 Cloudy BKN008 OVC250 53 53     100%     29.84 29.84 0 0  
Apr 22 03:05 E 8 10 Light Rain SCT008 BKN100 OVC250 53 52     96%     29.84   0    
Apr 22 02:53 ENE 6 10 Cloudy SCT005 SCT120 OVC250 53 53     100%     29.84 29.84 0    
Apr 22 02:39 E 13 10 Cloudy FEW005 SCT050 OVC120 53 53     100%     29.81   0    
Apr 22 02:26 E 11 10 Light Rain FEW005 SCT010 OVC050 53 53     100%     29.82   0    
Apr 22 02:12   3 Thunderstorms and Light Rain and Fog/Mist SCT005 BKN010 OVC050 53 53     100%     29.84   0    
Apr 22 02:03   2 Thunderstorms and Heavy Rain and Fog/Mist SCT005 BKN010 OVC050 53 53     100%     29.87   0    
Apr 22 01:53 N 11 2.5 Thunderstorms and Rain and Fog/Mist BKN013 OVC050 53 53     100%     29.87 29.88 0    
Apr 22 00:53 NNE 11 6 Thunderstorms and Rain and Fog/Mist BKN013 OVC050 57 57     100%     29.83 29.84 0   0
Apr 22 00:35 NNE 11 7 Thunderstorms and Rain BKN013 OVC050 58 57     97%     29.84   0    
Apr 22 00:13 NE 11 10 Light Rain OVC013 58 58     100%     29.81   0    
Apr 21 23:53 ENE 10 10 Cloudy BKN015 OVC050 59 58     96%     29.84 29.84 0    
Apr 21 23:42 ENE 11 10 Cloudy BKN015 OVC050 59 58     96%     29.84   0    
Apr 21 23:26 E 11 7 Thunderstorms and Rain BKN015 OVC050 59 58     96%     29.84   0    
Apr 21 23:22 E 13 7 Light Rain BKN015 OVC050 59 58     96%     29.83   0    
Apr 21 22:53   7 Light Rain OVC014 60 58     93%     29.83 29.83 0    
Apr 21 22:08 ENE 10 10 Mostly Cloudy BKN013 BKN100 BKN250 62 60     93%     29.87        
Apr 21 21:56 ENE 10 10 Mostly Cloudy BKN015 BKN100 BKN250 62 60     93%     29.86        
Apr 21 21:53 ENE 9 10 Mostly Cloudy SCT015 SCT100 BKN250 62 60     93%     29.86 29.86      
Apr 21 20:53   10 Partly Cloudy FEW022 FEW100 SCT250 64 60     87%     29.83 29.83      
Apr 21 19:53 ENE 9 10 Partly Cloudy FEW022 FEW100 SCT250 65 61     87%     29.85 29.85      
Apr 21 19:19   10 Mostly Cloudy SCT022 SCT110 BKN250 67 61     81%     29.84        
Apr 21 18:53   10 Mostly Cloudy BKN020 BKN110 BKN250 68 62     81%     29.84 29.84      
Apr 21 17:53 NE 11 10 Mostly Cloudy FEW024 BKN110 BKN250 68 61     78%     29.85 29.85      
Apr 21 17:02 NNE 10 10 Mostly Cloudy SCT024 SCT100 BKN250 70 62     76%     29.86        
Apr 21 16:53 N 11 10 Mostly Cloudy BKN024 BKN090 BKN250 69 61     75%     29.86 29.86      
Apr 21 16:30 NNE 10 10 Mostly Cloudy BKN024 BKN090 71 62     73%   71 29.87        
Apr 21 15:53 3 10 Partly Cloudy SCT020 SCT100 SCT250 71 62     73%   71 29.88 29.88      
Apr 21 14:53 ESE 7 10 Mostly Cloudy SCT015 BKN045 67 60     79%     29.91 29.91      
Apr 21 13:53 E 11 10 Mostly Cloudy SCT015 BKN045 66 60     81%     29.91 29.92      
Apr 21 13:46 E 11 10 Mostly Cloudy SCT015 BKN045 65 60     84%     29.92        
Apr 21 13:33 E 11 10 Mostly Cloudy BKN015 BKN045 65 60     84%     29.94        
Apr 21 12:53 ENE 11 10 Mostly Cloudy BKN010 BKN060 62 60     93%     29.94 29.95     0
Apr 21 12:38   10 Cloudy OVC012 61 59     93%     29.95        
Apr 21 11:53   10 Cloudy OVC015 60 58     93%     29.97 29.98 0    
Apr 21 11:32   10 Cloudy BKN015 OVC100 60 58     93%     29.98   0    
Apr 21 11:10   5 Drizzle BKN010 OVC015 59 59     100%     29.99   0    
Apr 21 10:59   3 Light Rain and Fog/Mist BKN010 OVC015 60 60     100%     29.99   0    
Apr 21 10:53   1.75 Heavy Rain and Fog/Mist BKN015 OVC050 60 60     100%     29.99 29.99 0    
Apr 21 10:40   3 Light Rain and Fog/Mist BKN015 OVC050 63 61     93%     29.97   0    
Apr 21 10:35   10 Cloudy BKN015 OVC050 65 63     93%     29.97        
Apr 21 09:53 NNE 8 9 Cloudy BKN015 OVC050 69 67     93%     29.96 29.96      
Apr 21 09:39 NE 8 9 Cloudy BKN015 OVC050 69 67     93%     29.96        
Apr 21 09:26 Calm 9 Cloudy BKN015 BKN050 OVC200 70 67     90%     29.96        
Apr 21 09:18 Calm 9 Thunderstorms SCT015 BKN050 BKN200 69 67     93%     29.95        
Apr 21 08:53 Calm 9 Cloudy SCT015 BKN070 OVC200 69 66     90%     29.96 29.96      
Apr 21 07:53 Calm 10 Cloudy BKN080 BKN110 OVC200 67 66     97%     29.95 29.95      
Apr 21 06:53 Calm 10 Mostly Cloudy BKN090 BKN200 65 65     100%     29.94 29.94      
Apr 21 05:53 Calm 10 Cloudy SCT095 OVC200 64 64     100%     29.94 29.94      
Apr 21 04:53 Calm 10 Mostly Cloudy FEW100 BKN200 64 64     100%     29.94 29.94      
Apr 21 03:53 Calm 10 Mostly Cloudy SCT090 BKN200 65 65     100%     29.95 29.95      
Apr 21 02:53 Calm 10 Partly Cloudy FEW090 SCT200 66 65     96%     29.96 29.96      
Apr 21 01:53 Calm 10 Clear CLR 65 64     97%     29.97 29.97      
Apr 21 00:53 Calm 10 Clear CLR 67 64     90%     29.99 29.99      
Apr 20 23:53 Calm 10 Clear CLR 69 65     87%     30 30      
Apr 20 22:53 SSE 3 10 Clear CLR 69 65     87%     30 30      
Apr 20 21:53 SSE 3 10 Clear CLR 70 64     81%     29.99 29.99      
Apr 20 20:53 S 5 10 Clear CLR 73 65     76%   74 29.99 29.99      
Apr 20 19:53 SSW 6 10 Mostly Clear FEW050 FEW100 FEW250 75 63     66%   75 29.98 29.98      
Apr 20 18:53 SSW 10 10 Mostly Clear FEW050 79 64     60%   79 29.97 29.97      
Apr 20 17:53 SW 13 10 Mostly Clear FEW050 81 63     54%   82 29.98 29.98      
Apr 20 16:53 SW 14 10 Partly Cloudy SCT048 SCT110 82 64     55%   84 29.98 29.98      
Apr 20 15:53 SW 11 10 Partly Cloudy SCT038 SCT110 SCT250 82 65     56%   84 30 30      
Apr 19 15:53 SSW 9 10 Mostly Cloudy BKN050 BKN250 81 67     62%   83 30.05 30.05 0 0  
Apr 19 14:53 SSE 14 10 Mostly Cloudy BKN042 BKN250 80 65     60%   82 30.07 30.07      
Apr 19 13:53 S 11 10 Mostly Cloudy SCT040 BKN250 79 65     62%   80 30.08 30.08      
Apr 19 12:53 SSW 10 10 Mostly Cloudy BKN035 79 65     62%   80 30.11 30.11      
Apr 19 11:53 SSE 11 10 Mostly Cloudy BKN030 80 66     62%   82 30.12 30.12      
Apr 19 10:53 WSW 5 10 Partly Cloudy SCT020 SCT250 76 66     71%   77 30.13 30.13      
Apr 19 09:53 SSW 7 10 Mostly Clear FEW015 FEW250 73 66     79%   74 30.13 30.13      
Apr 19 08:53 SSE 6 10 Mostly Clear FEW250 69 66     90%     30.13 30.12      
Apr 19 07:53 Calm 7 Mostly Clear FEW250 65 64     97%     30.13 30.13      
Apr 19 06:53 Calm 10 Mostly Clear FEW200 61 61     100%     30.12 30.12      
Apr 19 05:53 Calm 10 Clear CLR 62 62     100%     30.11 30.11      
Apr 19 04:53 SW 3 10 Clear CLR 63 63     100%     30.09 30.09      
Apr 19 03:53 Calm 10 Clear CLR 62 62     100%     30.08 30.08      
Apr 19 02:53 S 5 10 Clear CLR 63 63     100%     30.08 30.08      
Apr 19 01:53 Calm 10 Clear CLR 62 62     100%     30.08 30.08      
Apr 19 00:53 S 3 10 Clear CLR 64 63     96%     30.09 30.09      
Apr 18 22:53 S 3 10 Partly Cloudy SCT250 66 63     90%     30.09 30.09      
Apr 18 21:53 Calm 10 Partly Cloudy FEW040 SCT250 68 64     87%     30.09 30.09      
Apr 18 20:53 S 8 10 Partly Cloudy FEW040 SCT250 69 65     87%     30.06 30.06      
Apr 18 19:53 SSE 8 10 Partly Cloudy FEW040 SCT250 73 66     79%   74 30.04 30.04      
Apr 18 18:53 SE 13 10 Partly Cloudy FEW040 SCT250 76 67     74%   77 30.04 30.04      
Apr 18 17:53 SE 8 10 Partly Cloudy SCT040 SCT250 78 66     67%   79 30.04 30.03      
Apr 18 16:53 ESE 5 10 Mostly Cloudy BKN040 BKN250 78 65     64%   79 30.03 30.03      
Apr 18 15:53 ESE 6 10 Mostly Cloudy BKN035 BKN250 77 65     66%   78 30.04 30.04      
Apr 18 14:53 ENE 6 10 Mostly Cloudy BKN032 BKN250 77 65     66%   78 30.05 30.05      
Apr 18 13:53 Calm 10 Mostly Cloudy BKN030 BKN250 77 64     64%   77 30.07 30.07      
Apr 18 12:53 5 10 Mostly Cloudy SCT025 BKN250 74 65     74%   74 30.07 30.07      
Apr 18 12:15 3 10 Mostly Cloudy SCT022 BKN250 72 65     79%   73 30.08        
Apr 18 11:53 Calm 10 Mostly Cloudy BKN020 BKN250 72 65     79%   73 30.08 30.09      
Apr 18 10:53 3 10 Mostly Cloudy BKN015 BKN250 70 65     84%     30.09 30.09      
Apr 18 10:33 SE 5 10 Mostly Cloudy BKN015 BKN050 BKN250 68 65     90%     30.09        
Apr 18 09:53 ENE 3 10 Cloudy OVC010 68 65     90%     30.09 30.09      
Apr 18 09:40 E 6 10 Cloudy OVC010 68 65     90%     30.09        
Apr 18 08:53 NE 5 5 Fog/Mist BKN007 OVC028 66 65     96%     30.08 30.08      
Apr 18 08:35 NE 6 3 Fog/Mist OVC005 65 65     100%     30.09        
Apr 18 07:53 NE 6 2.5 Fog/Mist OVC005 64 64     100%     30.08 30.09      
Apr 18 07:09 NE 8 2.5 Fog/Mist OVC005 64 64     100%     30.07        
Apr 18 06:53 NE 8 3 Fog/Mist OVC005 64 64     100%     30.07 30.07     0
Apr 18 05:53 NE 6 5 Fog/Mist OVC006 65 65     100%     30.05 30.05      
Apr 18 04:53 NE 6 5 Fog/Mist OVC006 65 65     100%     30.04 30.04      
Apr 18 03:53 NE 8 6 Fog/Mist OVC006 65 65     100%     30.04 30.03 0 0  
Apr 18 02:53 NE 5 7 Light Rain BKN007 OVC019 65 65     100%     30.03 30.03 0    
Apr 18 01:53 N 5 5 Fog/Mist BKN007 BKN034 OVC085 65 65     100%     30.04 30.03      
Apr 18 01:37 N 6 5 Fog/Mist BKN006 BKN034 OVC085 65 65     100%     30.04        
Apr 18 00:53 NE 8 7 Cloudy FEW005 SCT017 OVC110 65 65     100%     30.04 30.04 0   0
Apr 17 23:53 NNE 8 4 Clear   65 65     100%     30.05 30.05 0    
Apr 17 22:53 N 6 8 Light Rain SCT030 OVC060 66 64     93%     30.05 30.05 0    
Apr 17 21:53 NNE 8 10 Light Rain SCT040 BKN060 OVC100 66 64     93%     30.05 30.05 0 0  
Apr 17 20:53 NNE 8 10 Mostly Cloudy FEW029 SCT040 BKN090 67 64     90%     30.03 30.03      
Apr 17 19:53 N 7 10 Cloudy SCT025 BKN035 OVC070 67 63     87%     30.02 30.02 0    
Apr 17 18:53 NNW 7 10 Cloudy BKN033 OVC080 70 61     73%     30 30      
Apr 17 17:53 NE 5 10 Cloudy BKN040 OVC100 72 63     73%   72 30 30      
Apr 17 16:53 ENE 7 10 Mostly Cloudy BKN035 BKN250 74 62     66%   74 29.99 29.99      
Apr 17 15:53 NE 3 10 Mostly Cloudy FEW025 SCT100 BKN250 74 61     64%   74 29.98 29.98      
Apr 17 14:53 NW 5 10 Mostly Cloudy SCT020 BKN095 BKN250 72 63     73%   72 30.03 30.03      
Apr 17 14:12 NW 10 10 Cloudy SCT017 BKN090 OVC250 71 64     79%   72 30.06        
Apr 17 13:53 NW 9 10 Cloudy BKN015 BKN120 OVC250 70 65     84%     30.07 30.07      
Apr 17 13:39 WNW 9 10 Cloudy BKN015 BKN095 OVC250 70 65     84%     30.07        
Apr 17 12:53 NW 8 10 Cloudy SCT012 BKN095 OVC250 68 65     90%     30.09 30.09 0   1
Apr 17 11:53   10 Light Rain FEW006 SCT026 BKN110 OVC250 67 66     97%     30.1 30.09 0    
Apr 17 10:53 W 8 7 Light Rain SCT050 BKN070 OVC110 65 65     100%     30.09 30.09 0    
Apr 17 09:53 SSW 3 10 Cloudy FEW006 SCT065 OVC080 65 64     97%     30.08 30.09 0 1  
Apr 17 09:01 S 3 10 Light Rain BKN065 OVC080 64 64     100%     30.07   0    
Apr 17 08:53 S 6 10 Thunderstorms and Rain FEW050 BKN065 OVC080 64 64     100%     30.07 30.07 0    
Apr 17 07:53 NNW 3 5 Thunderstorms and Rain and Fog/Mist SCT009 BKN038 OVC047 63 63     100%     30.07 30.07 0    
Apr 17 07:36 N 6 5 Thunderstorms and Rain and Fog/Mist SCT009 BKN017 OVC047 63 63     100%     30.07   0    
Apr 17 07:31 NNE 7 1 Thunderstorms and Heavy Rain and Fog/Mist SCT009 BKN017 OVC031 63 63     100%     30.06   0    
Apr 17 07:19 NW 10 4 Thunderstorms and Light Rain and Fog/Mist SCT015 BKN022 OVC031 64 63     96%     30.06   0    
Apr 17 07:14   2 Thunderstorms and Heavy Rain and Fog/Mist SCT009 BKN020 OVC031 64 63     96%     30.05   0    
Apr 17 07:03   9 Thunderstorms and Rain SCT009 BKN013 OVC022 67 66     97%     30.04   0    
Apr 17 06:53 WNW 6 10 Cloudy BKN013 OVC050 67 66     97%     30.04 30.04      
Apr 17 05:53 SSW 9 10 Cloudy SCT050 OVC100 66 66     100%     30.03 30.03      
Apr 17 04:53 S 5 10 Cloudy BKN100 OVC250 65 65     100%     30.04 30.04      
Apr 17 03:53 Calm 10 Clear   64 64     100%     30.04 30.04      
Apr 17 02:53 Calm 10 Mostly Cloudy BKN250 65 64     97%     30.03 30.03      
Apr 17 01:53 S 3 10 Mostly Cloudy BKN250 63 63     100%     30.04 30.04      
Apr 17 00:53 Calm 10 Partly Cloudy SCT250 64 64     100%     30.06 30.06      
Apr 16 23:53 NE 3 10 Partly Cloudy SCT250 66 64     93%     30.05 30.05      
Apr 16 22:53 Calm 10 Partly Cloudy FEW055 SCT250 68 63     84%     30.06 30.06      
Apr 16 21:53 S 5 10 Mostly Cloudy FEW055 BKN250 67 64     90%     30.07 30.07      
Apr 16 20:53 SW 3 10 Mostly Cloudy SCT060 BKN250 74 64     71%   74 30.07 30.07      
Apr 16 19:53 SSE 5 10 Cloudy BKN060 OVC250 74 65     74%   74 30.05 30.05      
Apr 16 18:53 S 6 10 Cloudy SCT050 OVC250 77 63     62%   77 30.03 30.03      
Apr 16 17:53 SSW 7 10 Cloudy FEW045 SCT150 OVC250 79 63     58%   79 30.02 30.02      
Apr 16 16:53 S 7 10 Cloudy FEW060 BKN150 OVC250 78 62     58%   78 30 30      
Apr 16 15:53 SSE 16 10 Cloudy FEW060 OVC250 79 63     58%   79 30.02 30.01      
Apr 16 14:53 SW 8 10 Cloudy FEW060 OVC250 77 62     60%   77 30.08 30.08      
Apr 16 13:53 WSW 14 10 Cloudy SCT038 BKN049 OVC250 78 62     58%   78 30.13 30.13      
Apr 16 12:53 SW 8 10 Cloudy SCT035 BKN045 OVC250 76 63     64%   76 30.14 30.14      
Apr 16 11:53 WSW 10 10 Cloudy SCT029 OVC250 75 63     66%   75 30.16 30.16      
Apr 09 00:53 SSE 8 10 Mostly Cloudy BKN250 60 53     78%     29.92 29.92      
Apr 08 23:53 SSE 10 10 Mostly Cloudy BKN250 64 53     67%     29.92 29.92      
Apr 08 22:53 S 9 10 Partly Cloudy SCT250 65 53     65%     29.92 29.92      
Apr 08 21:53 SSE 7 10 Mostly Clear FEW250 64 53     67%     29.92 29.92      
Apr 08 20:53 SSE 8 10 Mostly Clear FEW250 66 51     59%     29.91 29.91      
Apr 08 19:53 S 9 10 Mostly Clear FEW250 71 50     47%   70 29.9 29.9      
Apr 08 18:53   10 Partly Cloudy SCT250 75 49     40%   74 29.9 29.91      
Apr 08 17:53 S 13 10 Mostly Cloudy BKN250 77 48     36%   76 29.91 29.91      
Apr 08 16:53 SSW 15 10 Mostly Cloudy BKN250 78 48     35%   77 29.92 29.93      
Apr 08 15:53 S 13 10 Mostly Cloudy BKN250 79 50     36%   78 29.95 29.95      
Apr 08 14:53   10 Mostly Cloudy BKN250 78 48     35%   77 29.98 29.98      
Apr 08 13:53 S 13 10 Mostly Cloudy FEW050 BKN250 78 52     40%   77 30.01 30.01      
Apr 08 12:53   10 Mostly Cloudy BKN250 76 53     45%   75 30.04 30.04      
Apr 08 11:53 SSW 9 10 Partly Cloudy SCT250 72 50     46%   71 30.06 30.06      
Apr 08 10:53 SSW 13 10 Mostly Clear FEW250 69 49     49%     30.08 30.08      
Apr 08 09:53 SSE 7 10 Mostly Clear FEW250 62 45     53%     30.09 30.09      
Apr 08 08:53 S 6 10 Mostly Clear FEW250 56 42     60%     30.1 30.11      
Apr 08 07:53 Calm 10 Partly Cloudy SCT250 50 41     71%     30.11 30.11      
Apr 08 06:53 Calm 10 Partly Cloudy SCT250 45 41     86%     30.09 30.1      
Apr 08 05:53 Calm 10 Partly Cloudy SCT250 46 41     82%     30.08 30.09      
Apr 08 04:53 Calm 10 Partly Cloudy SCT250 45 41     86%     30.08 30.09      
Apr 08 03:53 Calm 10 Partly Cloudy SCT250 46 40     79%     30.08 30.08      
Apr 08 02:53 Calm 10 Partly Cloudy SCT250 50 37     61%     30.09 30.09      
Apr 08 01:53 Calm 10 Partly Cloudy SCT250 51 38     61%     30.1 30.1      
Apr 08 00:53 Calm 10 Partly Cloudy SCT250 52 38     59%     30.1 30.11      
Apr 07 23:53 SSE 3 10 Partly Cloudy SCT250 50 39     66% 49   30.1 30.11      
Apr 07 22:53 SSE 6 10 Partly Cloudy SCT250 52 38     59%     30.11 30.12      
Apr 07 21:53 SSE 6 10 Partly Cloudy SCT250 53 38     56%     30.12 30.13      
Apr 07 20:53 SE 5 10 Mostly Clear FEW250 54 38     55%     30.11 30.12      
Apr 07 19:53 ESE 5 10 Mostly Cloudy BKN050 BKN250 59 34     39%     30.11 30.11      
Apr 07 18:53 SE 6 10 Mostly Cloudy BKN050 BKN250 64 32     30%     30.11 30.12      
Apr 07 17:53 Calm 10 Partly Cloudy SCT045 SCT250 69 27     21%     30.12 30.12      
Apr 07 16:53 6 10 Partly Cloudy SCT045 69 28     21%     30.13 30.14      
Apr 07 15:53 N 10 10 Clear CLR 69 25     19%     30.16 30.16      
Apr 07 14:53 NW 9 10 Mostly Clear FEW150 67 26     21%     30.2 30.2      
Apr 07 13:53 NW 7 10 Mostly Clear FEW250 65 28     25%     30.22 30.23      
Apr 07 12:53 7 10 Mostly Clear FEW250 64 31     29%     30.25 30.25      
Apr 07 11:53 3 10 Mostly Clear FEW250 62 33     34%     30.27 30.27      
Apr 07 10:53 3 10 Clear CLR 60 31     33%     30.28 30.29      
Apr 07 09:53 5 10 Clear CLR 58 34     40%     30.29 30.29      
Apr 07 08:53 NW 7 10 Clear CLR 54 38     55%     30.28 30.29      
Apr 07 07:53 SW 3 10 Clear CLR 47 41     80% 46   30.27 30.28      
Apr 07 06:53 WSW 7 10 Clear CLR 43 37     79% 39   30.25 30.26      
Apr 07 05:53 NNW 8 10 Clear CLR 44 36     73% 40   30.22 30.22      
Apr 07 04:53 NNW 8 10 Clear CLR 43 36     76% 38   30.21 30.22      
Apr 07 03:53 NNW 8 10 Clear CLR 46 39     76% 42   30.23 30.23      
Apr 07 02:53 W 6 10 Clear CLR 44 37     76% 41   30.23 30.23      
Apr 07 01:53 WNW 5 10 Clear CLR 47 36     65% 45   30.22 30.22      
Apr 07 00:53 WNW 6 10 Clear CLR 51 35     54%     30.22 30.22      
Apr 06 23:53 NW 7 10 Clear CLR 53 36     52%     30.2 30.2      
Apr 06 22:53 NW 7 10 Clear CLR 54 33     45%     30.19 30.19      
Apr 06 21:53 NW 7 10 Clear CLR 55 32     41%     30.17 30.18      
Apr 06 20:53 NNW 7 10 Clear CLR 56 31     38%     30.14 30.14      
Apr 06 19:53 NW 11 10 Mostly Clear FEW070 62 28     27%     30.12 30.12      
Apr 06 18:53   10 Mostly Clear FEW070 64 29     27%     30.1 30.11      
Apr 06 17:53   10 Partly Cloudy SCT070 66 28     24%     30.1 30.1      
Apr 06 16:53   10 Partly Cloudy SCT070 67 30     25%     30.1 30.1      
Apr 06 15:53   10 Partly Cloudy SCT065 67 33     28%     30.11 30.11      
Apr 06 14:53 NW 17 10 Partly Cloudy SCT065 66 35     32%     30.13 30.13      
Apr 06 13:53   10 Partly Cloudy SCT065 65 35     33%     30.15 30.15      
Apr 06 12:53   10 Partly Cloudy SCT040 64 35     34%     30.16 30.17      
Apr 06 11:53   10 Partly Cloudy SCT040 62 38     41%     30.17 30.18      
Apr 06 10:53 NW 13 10 Clear CLR 59 37     44%     30.18 30.19      
Apr 06 09:53   10 Clear CLR 56 37     49%     30.17 30.18      
Apr 06 08:53 WSW 9 10 Clear CLR 52 39     61%     30.16 30.16      
Apr 06 07:53 W 10 10 Clear CLR 48 39     71% 43   30.14 30.14      
Apr 06 06:53 WSW 8 10 Clear CLR 44 39     82% 40   30.09 30.13      
Apr 06 05:53 W 8 10 Clear CLR 47 37     68% 43   30.06 30.1      
Apr 06 04:53 NW 9 10 Clear CLR 48 38     68% 44   30.03        
Apr 06 03:53 NW 11 10 Clear CLR 49 40     71% 44   30.02 30.06      
Apr 06 02:53   10 Clear CLR 51 40     65%     30 30.03      
Apr 06 01:53 WNW 9 10 Clear CLR 50 41     71% 46   29.99 30.03      
Apr 06 00:53 W 5 10 Mostly Clear FEW065 47 41     80% 45   29.98 30.01      
Apr 05 23:53 WSW 6 10 Mostly Clear FEW065 48 41     77% 45   29.97 30.01      
Apr 05 22:53 WSW 7 10 Mostly Clear FEW065 50 41     71% 47   29.98 30.01      
Apr 05 21:53 W 8 10 Clear CLR 53 41     63%     29.94 29.98      
Apr 05 20:53 W 8 10 Mostly Clear FEW065 54 40     59%     29.92 29.95      
Apr 05 19:53 WNW 13 10 Mostly Clear FEW065 56 39     53%     29.9 29.93      
Apr 05 18:53   10 Mostly Cloudy BKN060 58 38     47%     29.87 29.9     0
Apr 05 17:53   10 Mostly Cloudy BKN050 60 40     47%     29.84 29.87      
Apr 05 15:53   10 Cloudy BKN035 OVC050 56 45     67%     29.8 29.8   0  
Apr 05 14:53   10 Clear   58 46     65%     29.78 29.78      
Apr 05 13:53   10 Cloudy OVC035 60 44     55%     29.76 29.76      
Apr 05 12:53   10 Cloudy OVC032 58 44     60%     29.74 29.75      
Apr 05 11:53   10 Cloudy OVC032 58 45     62%     29.73 29.73      
Apr 05 10:53   10 Cloudy OVC028 58 44     60%     29.72 29.72      
Apr 05 09:53   10 Mostly Cloudy BKN025 58 47     67%     29.68 29.68      
Apr 05 08:53 WSW 15 10 Mostly Cloudy BKN022 59 54     83%     29.66 29.67      
Apr 05 08:47 W 13 10 Mostly Cloudy BKN022 59 54     82%     29.66        
Apr 05 07:53 WSW 11 10 Partly Cloudy FEW035 SCT250 59 55     87%     29.65 29.65      
Apr 05 06:53 W 9 10 Mostly Cloudy BKN047 BKN200 58 55     90%     29.65 29.65     0
Apr 05 05:53 SSW 3 10 Partly Cloudy FEW050 SCT200 56 54     93%     29.63 29.63      
Apr 05 04:53 SE 3 10 Clear   57 55     93%     29.63 29.63      
Apr 05 03:53 ENE 7 10 Cloudy FEW034 BKN080 OVC200 58 55     90%     29.63 29.63 0 0  
Apr 05 02:53 NW 9 10 Light Rain BKN085 OVC200 61 54     78%     29.7 29.7 0    
Apr 05 01:53   10 Cloudy SCT100 OVC200 65 53     65%     29.69 29.69      
Apr 05 00:59   10 Cloudy OVC090 71 53     53%   70 29.67        
Apr 05 00:53   10 Cloudy BKN100 OVC110 71 55     57%   71 29.67 29.67      
Apr 04 23:53 S 7 10 Mostly Cloudy SCT095 BKN250 69 56     63%     29.64 29.64      
Apr 04 22:53 SSE 14 10 Mostly Cloudy BKN250 71 58     63%   71 29.62 29.62      
Apr 04 21:53 SSE 9 10 Mostly Clear FEW250 70 59     68%     29.64 29.64      
Apr 04 20:53 SSE 9 10 Mostly Clear FEW065 73 58     59%   73 29.63 29.64      
Apr 04 19:53 SSE 9 10 Partly Cloudy SCT065 SCT250 75 56     52%   75 29.63 29.63      
Apr 04 18:53 S 9 10 Partly Cloudy SCT065 SCT250 79 55     44%   79 29.65 29.65      
Apr 04 17:53 S 14 10 Partly Cloudy SCT065 SCT250 82 55     40%   81 29.65 29.65      
Apr 04 16:53 ESE 13 10 Partly Cloudy FEW050 SCT250 81 62     53%   82 29.66 29.66      
Apr 04 15:53 ESE 11 10 Partly Cloudy FEW050 SCT250 81 60     49%   82 29.67 29.67      
Apr 04 14:53 ESE 13 10 Mostly Clear FEW050 FEW250 80 59     49%   81 29.69 29.69      
Apr 04 13:53 SE 9 10 Partly Cloudy FEW050 FEW120 SCT250 79 58     49%   79 29.73 29.73      
Apr 04 12:53 SE 14 10 Mostly Clear FEW120 FEW250 77 57     50%   77 29.74 29.75      
Apr 04 11:53 ESE 8 10 Partly Cloudy SCT250 74 58     57%   74 29.78 29.78      
Apr 04 10:53 5 10 Partly Cloudy SCT250 70 59     68%     29.8 29.8      
Apr 04 08:53 Calm 10 Mostly Cloudy FEW010 BKN250 59 56     90%     29.8 29.8      
Apr 04 07:53 Calm 10 Mostly Cloudy BKN250 55 55     100%     29.8 29.8      
Apr 04 06:53 Calm 10 Mostly Cloudy BKN250 52 52     100%     29.77 29.78      
Apr 04 05:53 Calm 10 Clear CLR 51 51     100%     29.76 29.77      
Apr 04 04:53 Calm 10 Clear CLR 53 53     100%     29.76 29.76      
Apr 04 03:53 W 3 10 Clear CLR 54 54     100%     29.75 29.75      
Apr 04 02:53 Calm 10 Clear CLR 55 54     96%     29.74 29.74      
Apr 04 01:53 WSW 7 10 Clear CLR 56 55     97%     29.74 29.74      
Apr 04 00:53 SW 5 10 Clear CLR 55 54     96%     29.74 29.74      
Apr 03 23:53 WSW 3 10 Clear CLR 55 53     93%     29.73 29.74      
Apr 03 22:53 Calm 10 Clear CLR 61 53     75%     29.72 29.72      
Apr 03 21:53 SW 6 10 Clear CLR 63 53     70%     29.7 29.7      
Apr 03 20:53 WSW 5 10 Clear CLR 66 53     63%     29.67 29.67      
Apr 03 19:53 SW 6 10 Mostly Clear FEW050 68 52     57%     29.64 29.64      
Apr 03 18:53   10 Mostly Clear FEW050 73 51     46%   72 29.61 29.61      
Apr 03 17:53 SW 14 10 Mostly Clear FEW048 75 53     46%   74 29.6 29.59      
Apr 03 16:53 WSW 15 10 Partly Cloudy FEW060 SCT075 75 53     46%   74 29.58 29.58      
Apr 03 15:53 WSW 13 10 Mostly Cloudy BKN055 BKN075 74 54     50%   73 29.58 29.57      
Apr 03 14:53 WSW 16 10 Clear   72 55     55%   71 29.57 29.57      
Apr 03 13:53   10 Mostly Cloudy BKN032 72 56     57%   72 29.59 29.59      
Apr 03 12:53 WSW 15 10 Mostly Cloudy BKN030 68 57     68%     29.59 29.59     0
Apr 03 12:04   10 Mostly Cloudy SCT025 BKN080 67 59     76%     29.6        
Apr 03 11:53   10 Mostly Cloudy BKN025 BKN050 67 60     79%     29.61 29.61 0    
Apr 03 10:53   10 Mostly Cloudy SCT015 BKN023 BKN050 64 60     87%     29.62 29.62 0    
Apr 03 09:53 SW 13 10 Clear   63 61     93%     29.61 29.62 0 0  
Apr 03 08:53 SSW 13 10 Cloudy SCT012 BKN025 OVC040 62 61     96%     29.6 29.6      
Apr 03 08:29 SW 11 10 Cloudy BKN015 BKN030 OVC045 62 61     96%     29.6        
Apr 03 07:53 SSW 13 10 Cloudy FEW009 BKN014 OVC040 61 61     100%     29.59 29.59      
Apr 03 06:53 SW 8 10 Cloudy BKN010 OVC015 61 61     100%     29.57 29.57     0
Apr 03 06:42 SW 9 10 Cloudy BKN010 OVC015 61 61     100%     29.58        
Apr 03 05:53 SSW 10 10 Cloudy FEW009 SCT020 OVC030 62 62     100%     29.55 29.56 0    
Apr 03 05:40 SSW 14 7 Cloudy SCT009 OVC025 62 62     100%     29.55   0    
Apr 03 04:53 S 13 4 Light Rain and Fog/Mist OVC009 63 63     100%     29.58 29.59 0    
Apr 03 04:39 S 10 4 Light Rain and Fog/Mist OVC009 63 63     100%     29.59   0    
Apr 03 03:53 S 14 5 Fog/Mist OVC009 63 63     100%     29.59 29.59      
Apr 03 03:40 S 13 5 Fog/Mist OVC009 63 63     100%     29.58        
Apr 03 02:53 S 15 10 Cloudy BKN011 OVC020 64 63     96%     29.6 29.6      
Apr 03 01:53 SSE 8 10 Cloudy OVC010 62 62     100%     29.6 29.61      
Apr 03 00:53 SE 3 10 Cloudy OVC011 61 61     100%     29.65 29.65      
Apr 02 23:53 ENE 5 10 Cloudy OVC010 60 60     100%     29.64 29.64      
Apr 02 22:53 SW 7 10 Cloudy BKN013 OVC050 61 60     97%     29.71 29.71      
Apr 02 22:26 E 6 10 Cloudy OVC013 61 60     97%     29.69        
Apr 02 21:53 ESE 10 10 Cloudy OVC015 61 60     97%     29.7 29.7      
Apr 02 21:20 ESE 7 10 Cloudy BKN015 OVC050 61 59     93%     29.71        
Apr 02 20:53 E 9 10 Cloudy SCT015 BKN050 OVC100 61 59     93%     29.65 29.65      
Apr 02 19:53 S 8 10 Cloudy FEW015 BKN050 BKN110 OVC250 60 59     96%     29.68        
Apr 02 18:53 ENE 17 10 Cloudy SCT015 BKN050 OVC110 60 59     96%     29.57   0   1
Apr 02 18:16   4 Light Rain and Fog/Mist FEW015 BKN038 OVC050 59 59     100%     29.69   0    
Apr 02 18:00   3 Thunderstorms and Rain and Fog/Mist FEW006 BKN038 OVC045 59 59     100%     29.76   0    
Apr 02 17:53   1 Thunderstorms and Heavy Rain and Fog/Mist FEW006 BKN029 OVC045 59 59     100%     29.86 29.86 1    
Apr 02 17:40   1.25 Thunderstorms and Heavy Rain and Fog/Mist FEW004 SCT025 OVC045 59 59     100%         0    
Apr 02 17:01 Calm 1.75 Thunderstorms and Rain and Fog/Mist FEW025 BKN040 OVC050 59 59     100%     29.83   0    
Apr 02 16:53 NE 3 2 Rain and Fog/Mist FEW027 BKN042 OVC050 59 59     100%     29.83 29.83 0    
Apr 02 16:44 E 3 2.5 Thunderstorms and Rain and Fog/Mist FEW060 BKN075 OVC090 59 59     100%     29.83   0    
Apr 02 15:53 NE 6 3 Thunderstorms and Rain and Fog/Mist SCT015 BKN070 OVC090 60 60     100%     29.83 29.83 0 0  
Apr 02 14:53 SSE 11 3 Thunderstorms and Heavy Rain and Fog/Mist SCT025 BKN070 OVC090 62 61     96%     29.9 29.9 0    
Apr 02 13:53 ESE 9 10 Thunderstorms and Rain FEW070 SCT130 OVC150 68 56     65%     29.89 29.89 0    
Apr 02 13:41 E 9 10 Thunderstorms FEW110 SCT130 OVC150 69 55     61%     29.88        
Apr 02 13:18 ENE 9 10 Cloudy SCT130 OVC150 69 55     61%     29.87        
Apr 02 12:53 E 9 10 Cloudy SCT130 OVC150 69 55     61%     29.92 29.92      
Apr 02 11:53 E 14 10 Cloudy SCT150 OVC250 69 54     59%     29.93 29.93      
Apr 02 10:53 ESE 13 10 Cloudy FEW060 SCT150 OVC250 67 53     61%     29.97 29.97      
Apr 02 09:53 ESE 11 10 Mostly Cloudy FEW070 SCT150 BKN250 63 52     67%     29.99 29.99      
Apr 02 08:53 E 9 10 Cloudy SCT150 OVC250 59 51     75%     30.01 30.01      
Apr 02 07:53 E 9 10 Mostly Cloudy SCT070 BKN120 BKN250 55 51     86%     30.03 30.03      
Apr 02 06:53 ENE 9 10 Cloudy SCT070 OVC120 54 50     86%     30.05 30.05      
Apr 02 05:53 ENE 8 10 Cloudy SCT070 OVC120 54 50     86%     30.04 30.04      
Apr 02 04:53 NE 7 10 Cloudy BKN070 OVC120 54 50     86%     30.03 30.03      
Apr 02 03:53 ENE 8 10 Cloudy BKN070 OVC120 55 50     83%     30.01 30.02      
Apr 02 02:53 NE 10 10 Partly Cloudy SCT150 SCT250 55 50     83%     30.03 30.03      
Apr 02 01:53 NE 5 10 Partly Cloudy SCT150 SCT250 55 50     83%     30.05 30.05      
Apr 02 00:53 NE 11 10 Partly Cloudy SCT150 SCT250 56 51     84%     30.06 30.07      
Apr 01 23:53 NE 7 10 Mostly Cloudy FEW150 BKN250 57 52     83%     30.07 30.07      
Apr 01 21:53 ENE 11 10 Mostly Cloudy BKN250 60 53     78%     30.07 30.07      
Apr 01 20:53 NE 11 10 Mostly Cloudy BKN250 61 53     75%     30.05 30.06      
Apr 01 19:53 ENE 9 10 Mostly Cloudy BKN250 63 54     72%     30.04 30.04      
Apr 01 18:53 ENE 15 10 Mostly Cloudy BKN250 66 53     63%     30.03 30.03      
Apr 01 17:53 ENE 16 10 Mostly Cloudy BKN250 69 54     59%     30.05 30.05      
Apr 01 16:53   10 Clear   70 53     55%     30.04 30.04      
Apr 01 15:53 ENE 13 10 Mostly Clear FEW250 70 53     55%     30.06 30.06      
Apr 01 14:53   10 Mostly Clear FEW250 70 53     55%     30.09 30.09      
Apr 01 13:53 E 11 10 Partly Cloudy SCT250 68 52     57%     30.11 30.11      
Apr 01 12:53   10 Partly Cloudy SCT250 65 50     58%     30.12 30.12      
Apr 01 11:53 ENE 10 10 Partly Cloudy FEW035 SCT250 63 50     63%     30.14 30.14      
Apr 01 10:53 E 13 10 Mostly Clear FEW035 FEW250 61 49     64%     30.16 30.16      
Apr 01 09:53 ENE 11 10 Mostly Clear FEW020 58 49     72%     30.15 30.15      
Apr 01 08:53 ENE 11 10 Clear CLR 55 49     80%     30.13 30.13      
Apr 01 07:53 ENE 10 10 Clear CLR 51 48     89%     30.1 30.1      
Apr 01 06:53 ENE 9 10 Clear CLR 50 48     93% 46   30.09 30.09      
Apr 01 05:53 ENE 9 10 Clear CLR 50 48     93% 46   30.06 30.07      
Apr 01 04:53 NE 13 10 Clear CLR 52 50     93%     30.04 30.04      
Apr 01 03:53 ENE 13 10 Clear CLR 54 52     93%     30.03 30.03      
Apr 01 02:53 ENE 9 10 Clear CLR 55 52     89%     30.02 30.02      
Apr 01 01:53 ENE 8 10 Clear CLR 54 52     93%     30 30.01      
Apr 01 00:53 ENE 5 10 Clear CLR 56 52     87%     29.99 29.99      
Mar 31 23:53 NE 7 10 Clear CLR 57 52     83%     29.96 29.97      
Mar 31 22:53 ENE 7 10 Clear CLR 58 52     81%     29.95 29.95      
Mar 31 21:53 E 6 10 Clear CLR 60 51     72%     29.93 29.93      
Mar 31 20:53 E 6 10 Clear CLR 61 51     70%     29.91 29.91      
Mar 31 19:53 E 9 10 Mostly Clear FEW250 66 51     59%     29.89 29.89      
Mar 31 18:53 ESE 8 10 Mostly Clear FEW250 70 50     49%     29.87 29.87      
Mar 31 17:53 ESE 7 10 Mostly Clear FEW250 74 48     40%   73 29.85 29.85      
Mar 31 16:53 SE 6 10 Mostly Clear FEW250 73 48     41%   72 29.86 29.86      
Mar 31 15:53 SE 5 10 Mostly Clear FEW250 72 49     44%   71 29.86 29.86      
Mar 31 14:53 E 8 10 Clear CLR 71 49     45%   70 29.87 29.87      
Mar 31 13:53 E 5 10 Clear CLR 69 48     47%     29.89 29.89      
Mar 31 11:53 3 10 Clear CLR 64 48     56%     29.92 29.92      
Mar 31 10:53 3 10 Clear CLR 60 46     60%     29.93 29.93      
Mar 31 09:53 NNW 5 10 Clear CLR 56 46     69%     29.91 29.91      
Mar 31 08:53 W 7 10 Clear CLR 53 46     77%     29.89 29.9      
Mar 31 07:53 NW 6 10 Clear CLR 50 45     83% 48   29.87 29.87      
Mar 31 06:53 WSW 7 10 Clear CLR 46 44     93% 42   29.87 29.87      
Mar 31 05:53 W 6 10 Clear CLR 47 44     90% 44   29.85 29.85      
Mar 31 04:53 NNW 7 10 Clear CLR 48 44     86% 45   29.82 29.82      
Mar 31 03:53 WNW 7 10 Clear CLR 50 44     80% 47   29.81 29.81      
Mar 31 02:53 W 10 10 Clear CLR 51 45     79%     29.78 29.79      
Mar 31 01:53 W 6 10 Clear CLR 52 45     77%     29.78 29.79      
Mar 31 00:53 W 7 10 Mostly Clear FEW055 53 45     74%     29.79 29.79      
Mar 30 23:53 WNW 11 10 Mostly Cloudy BKN055 55 45     69%     29.78 29.79      
Mar 30 22:53 W 9 10 Cloudy OVC050 57 45     64%     29.77 29.77      
Mar 30 21:53 WNW 9 10 Cloudy OVC055 57 45     64%     29.76 29.77      
Mar 30 20:53 W 9 10 Clear   58 46     65%     29.75 29.75      
Mar 30 19:53 W 8 10 Mostly Cloudy BKN060 58 45     62%     29.74 29.74      
Mar 30 18:53   10 Mostly Cloudy FEW045 BKN055 59 45     60%     29.73 29.73      
Mar 30 17:53 WSW 17 10 Clear   60 44     55%     29.71 29.72      
Mar 30 16:53 W 15 10 Partly Cloudy SCT044 62 44     52%     29.71 29.71      
Mar 30 15:53   10 Mostly Cloudy BKN045 63 44     50%     29.7 29.7      
Mar 30 14:53   10 Mostly Cloudy BKN042 61 44     54%     29.71 29.71      
Mar 30 13:53 W 15 10 Clear   60 44     55%     29.72 29.72      
Mar 30 12:53   10 Mostly Cloudy BKN035 60 45     57%     29.72 29.72      
Mar 30 11:53   10 Clear   61 45     56%     29.73 29.73      
Mar 30 10:53 SW 17 10 Partly Cloudy SCT028 61 47     60%     29.74 29.74      
Mar 30 09:53 SW 16 10 Partly Cloudy SCT020 60 50     69%     29.72 29.72      
Mar 30 08:53   10 Mostly Cloudy SCT015 SCT050 BKN100 60 55     83%     29.71 29.71      
Mar 30 07:53 SW 14 10 Mostly Cloudy SCT015 BKN045 BKN100 60 58     93%     29.69 29.69      
Mar 30 07:11 SSW 11 10 Cloudy FEW024 BKN055 OVC110 61 60     97%     29.7        
Mar 30 06:53 SSW 11 10 Mostly Cloudy FEW010 BKN024 BKN100 61 61     100%     29.7 29.7     0
Mar 30 06:02 S 11 10 Mostly Cloudy SCT019 BKN024 61 61     100%     29.67        
Mar 30 05:53 S 8 10 Partly Cloudy FEW017 SCT024 61 60     97%     29.67 29.67      
Mar 30 05:40 S 9 10 Partly Cloudy SCT017 SCT027 62 61     96%     29.66        
Mar 30 04:53 S 7 10 Cloudy BKN019 OVC027 62 60     93%     29.67 29.67      
Mar 30 03:53 S 8 10 Mostly Clear FEW035 61 60     97%     29.67 29.67   0  
Mar 30 02:53 S 9 10 Mostly Clear FEW035 63 61     93%     29.68 29.67      
Mar 30 01:53 SSW 9 10 Mostly Cloudy FEW034 BKN095 BKN110 64 62     93%     29.7 29.7 0    
Mar 30 01:04 SSW 10 10 Cloudy SCT048 BKN070 OVC090 66 64     93%     29.71   0    
Mar 30 00:53 S 11 6 Thunderstorms and Rain and Fog/Mist SCT050 BKN060 OVC080 67 64     90%     29.71 29.71 0   0
Mar 30 00:00 SSW 7 10 Thunderstorms SCT060 BKN070 OVC090 70 63     78%     29.73        
Mar 29 23:53 SSW 7 10 Cloudy SCT060 BKN070 OVC090 70 63     78%     29.73 29.72      
Mar 29 22:53 S 8 10 Cloudy BKN120 OVC250 70 63     78%     29.7 29.7      
Mar 29 21:53 S 8 10 Cloudy FEW060 OVC120 70 63     78%     29.72 29.71      
Mar 29 20:53 SSE 7 10 Cloudy SCT060 OVC095 72 62     71%   72 29.72 29.72      
Mar 29 19:53 SSE 9 10 Cloudy SCT060 OVC095 74 61     64%   74 29.74 29.74      
Mar 29 18:53 SSE 14 10 Mostly Cloudy BKN060 BKN250 77 60     56%   77 29.74 29.74      
Mar 29 17:53 SSE 16 10 Mostly Cloudy BKN055 BKN250 78 60     54%   78 29.73 29.73      
Mar 29 16:53 SSE 13 10 Mostly Cloudy BKN050 BKN250 80 61     52%   81 29.74 29.74      
Mar 29 15:53 S 16 10 Mostly Cloudy BKN040 BKN250 79 62     56%   79 29.76 29.76      
Mar 29 14:53 SSE 14 10 Cloudy SCT035 SCT080 OVC250 78 64     62%   79 29.78 29.78      
Mar 29 13:53   10 Cloudy FEW032 OVC250 77 64     64%   77 29.77 29.77      
Mar 29 12:53 SSE 20 10 Cloudy and Windy FEW025 SCT100 OVC250 78 61     56%   78 29.81 29.81     0
Mar 29 11:53   10 Mostly Cloudy FEW028 SCT090 BKN250 76 64     67%   76 29.85 29.85      
Mar 29 10:53 SSE 9 10 Mostly Cloudy SCT028 BKN080 BKN250 72 65     79%   73 29.88 29.88 0    
Mar 29 09:53 SSE 7 10 Cloudy FEW020 SCT050 OVC100 67 63     87%     29.91 29.91      
Mar 29 08:53 S 7 10 Mostly Cloudy FEW015 SCT050 BKN100 BKN250 65 62     90%     29.89 29.89      
Mar 29 07:53 E 9 10 Mostly Cloudy FEW025 BKN080 BKN250 61 58     90%     29.9 29.9      
Mar 29 06:53 NE 6 10 Mostly Cloudy FEW047 BKN080 BKN200 58 57     97%     29.89 29.9      
Mar 29 05:53 E 8 10 Cloudy SCT046 BKN070 OVC200 59 57     93%     29.84 29.84      
Mar 29 04:53 ENE 6 10 Cloudy SCT050 BKN080 OVC200 59 57     93%     29.86 29.86      
Mar 29 03:53 E 10 10 Cloudy BKN045 OVC080 60 57     90%     29.86 29.86      
Mar 29 02:53 E 9 10 Cloudy BKN046 OVC080 61 57     87%     29.89 29.89      
Mar 29 01:53 ENE 13 10 Cloudy BKN040 BKN085 OVC200 62 57     84%     29.9 29.9      
Mar 29 00:53 E 10 10 Cloudy FEW050 BKN090 OVC200 63 58     84%     29.91 29.91      
Mar 28 23:53 ENE 14 10 Cloudy FEW050 OVC090 64 58     81%     29.92 29.92      
Mar 28 22:53 ENE 11 10 Partly Cloudy SCT045 SCT250 64 59     84%     29.92 29.93      
Mar 28 21:53 ENE 10 10 Partly Cloudy SCT045 65 60     84%     29.93 29.93      
Mar 28 20:53 NE 10 10 Mostly Cloudy BKN045 67 60     79%     29.91 29.91      
Mar 28 19:53 NE 11 10 Mostly Cloudy BKN050 68 61     78%     29.91 29.91      
Mar 28 18:53 ENE 10 10 Partly Cloudy SCT055 70 61     73%     29.89 29.9      
Mar 28 17:53 ENE 14 10 Cloudy SCT035 OVC055 74 62     66%   74 29.9 29.9      
Mar 28 16:53 ESE 11 10 Cloudy OVC035 73 61     66%   73 29.91 29.91      
Mar 28 15:53 E 10 10 Partly Cloudy SCT035 74 61     64%   74 29.92 29.92      
Mar 28 14:53 5 10 Partly Cloudy SCT032 72 60     66%   72 29.94 29.94      
Mar 28 13:53 E 8 10 Partly Cloudy SCT028 70 59     68%     29.97 29.97      
Mar 28 12:53 ESE 10 10 Mostly Cloudy BKN025 68 59     73%     30.01 30.01      
Mar 28 11:53 ENE 6 10 Partly Cloudy SCT020 68 59     73%     30.02 30.02      
Mar 28 11:29 ENE 7 10 Mostly Cloudy SCT020 BKN045 67 59     76%     30.03        
Mar 28 10:53 7 10 Mostly Cloudy BKN018 BKN040 65 58     78%     30.03 30.03